When you browse on this site, cookies collect data to enhance your experience and personalize the content and advertising you see.
Visit our Privacy Policy to learn more. By continuing to use the site, you agree to this use of cookies and data.
  • en France
  • Liste des pays
  • À 7 jours
  • Température de l'eau
  • Carte météo
  • Widgets météo
  • user-avatar
    Se connecter

    Météo par heure à Apatzingán de la Constitución

    Ce jour, 19 Septembre, Jeudi

    Heure Température Précipitation Vent Pression Humidité
    00:00 +24°C° 0.3 mm 1 m/s 733 mmHg 98%
    01:00 +24°C° 0.3 mm 1 m/s 732 mmHg 97%
    02:00 +24°C° 0.3 mm 1 m/s 732 mmHg 97%
    03:00 +24°C° 0.6 mm 1 m/s 732 mmHg 97%
    04:00 +24°C° 0.6 mm 1 m/s 732 mmHg 97%
    05:00 +24°C° 0.6 mm 1 m/s 731 mmHg 97%
    06:00 +24°C° 1.2 mm 1 m/s 732 mmHg 97%
    07:00 +23°C° 1.2 mm 0 m/s 733 mmHg 96%
    08:00 +23°C° 1.2 mm 0 m/s 733 mmHg 96%
    09:00 +23°C° 0.9 mm 0 m/s 733 mmHg 96%
    10:00 +23°C° 0.9 mm 0 m/s 733 mmHg 96%
    11:00 +23°C° 0.9 mm 0 m/s 733 mmHg 96%
    12:00 +25°C° 0.1 mm 0 m/s 732 mmHg 90%
    13:00 +28°C° 0.1 mm 1 m/s 731 mmHg 85%
    14:00 +30°C° 0.1 mm 1 m/s 731 mmHg 79%
    15:00 +29°C° 0.1 mm 1 m/s 730 mmHg 82%
    16:00 +26°C° 0.1 mm 0 m/s 730 mmHg 85%
    17:00 +26°C° 0.1 mm 0 m/s 730 mmHg 87%
    18:00 +25°C° 0.1 mm 0 m/s 731 mmHg 89%
    19:00 +24°C° 0.1 mm 0 m/s 731 mmHg 90%
    20:00 +23°C° 0.1 mm 0 m/s 732 mmHg 92%
    21:00 +23°C° 0 mm 0 m/s 731 mmHg 92%
    22:00 +22°C° 0 mm 0 m/s 731 mmHg 92%
    23:00 +22°C° 0 mm 0 m/s 731 mmHg 93%

    Demain, 20 Septembre, Vendredi

    Heure Température Précipitation Vent Pression Humidité
    00:00 +22°C° 0 mm 0 m/s 731 mmHg 93%
    01:00 +22°C° 0 mm 0 m/s 731 mmHg 93%
    02:00 +22°C° 0 mm 0 m/s 731 mmHg 94%
    03:00 +21°C° 0 mm 0 m/s 731 mmHg 93%
    04:00 +21°C° 0 mm 0 m/s 730 mmHg 93%
    05:00 +21°C° 0 mm 0 m/s 730 mmHg 93%
    06:00 +23°C° 0 mm 0 m/s 731 mmHg 90%
    07:00 +24°C° 0 mm 0 m/s 731 mmHg 87%
    08:00 +25°C° 0 mm 0 m/s 731 mmHg 84%
    09:00 +29°C° 0.1 mm 1 m/s 731 mmHg 78%
    10:00 +31°C° 0.1 mm 1 m/s 731 mmHg 73%
    11:00 +32°C° 0.1 mm 1 m/s 731 mmHg 68%
    12:00 +33°C° 0.2 mm 1 m/s 730 mmHg 66%
    13:00 +33°C° 0.2 mm 1 m/s 730 mmHg 65%
    14:00 +32°C° 0.2 mm 0 m/s 729 mmHg 63%
    15:00 +31°C° 0.4 mm 0 m/s 729 mmHg 68%
    16:00 +30°C° 0.4 mm 0 m/s 729 mmHg 74%
    17:00 +29°C° 0.4 mm 0 m/s 729 mmHg 79%
    18:00 +27°C° 0.5 mm 0 m/s 730 mmHg 82%
    19:00 +28°C° 0.5 mm 1 m/s 730 mmHg 85%
    20:00 +26°C° 0.5 mm 1 m/s 731 mmHg 88%
    21:00 +26°C° 0.3 mm 1 m/s 731 mmHg 89%
    22:00 +23°C° 0.3 mm 0 m/s 731 mmHg 91%
    23:00 +23°C° 0.3 mm 0 m/s 732 mmHg 92%

    Après-demain, 21 Septembre, Samedi

    Heure Température Précipitation Vent Pression Humidité
    00:00 +23°C° 0.1 mm 0 m/s 731 mmHg 93%
    01:00 +22°C° 0.1 mm 0 m/s 731 mmHg 93%
    02:00 +22°C° 0.1 mm 0 m/s 731 mmHg 94%
    03:00 +22°C° 0 mm 0 m/s 731 mmHg 94%
    04:00 +22°C° 0 mm 0 m/s 731 mmHg 94%
    05:00 +22°C° 0 mm 0 m/s 731 mmHg 93%
    06:00 +23°C° 0 mm 0 m/s 732 mmHg 91%
    07:00 +24°C° 0 mm 0 m/s 732 mmHg 90%
    08:00 +25°C° 0 mm 0 m/s 732 mmHg 88%
    09:00 +29°C° 0 mm 1 m/s 732 mmHg 82%
    10:00 +31°C° 0 mm 1 m/s 732 mmHg 77%
    11:00 +32°C° 0 mm 1 m/s 731 mmHg 71%
    12:00 +33°C° 0.1 mm 1 m/s 731 mmHg 69%
    13:00 +33°C° 0.1 mm 1 m/s 730 mmHg 68%
    14:00 +34°C° 0.1 mm 1 m/s 729 mmHg 66%
    15:00 +33°C° 0.3 mm 1 m/s 729 mmHg 70%
    16:00 +30°C° 0.3 mm 0 m/s 729 mmHg 75%
    17:00 +29°C° 0.3 mm 0 m/s 729 mmHg 80%
    18:00 +27°C° 0.2 mm 0 m/s 730 mmHg 82%
    19:00 +28°C° 0.2 mm 1 m/s 731 mmHg 84%
    20:00 +27°C° 0.2 mm 1 m/s 731 mmHg 86%
    21:00 +26°C° 0.2 mm 1 m/s 731 mmHg 87%
    22:00 +26°C° 0.2 mm 1 m/s 731 mmHg 88%
    23:00 +25°C° 0.2 mm 1 m/s 732 mmHg 88%

    22 Septembre, Dimanche

    Heure Température Précipitation Vent Pression Humidité
    00:00 +25°C° 0.3 mm 1 m/s 731 mmHg 88%
    01:00 +25°C° 0.3 mm 1 m/s 731 mmHg 89%
    02:00 +23°C° 0.3 mm 0 m/s 731 mmHg 89%
    03:00 +23°C° 0.4 mm 0 m/s 731 mmHg 90%
    04:00 +23°C° 0.4 mm 0 m/s 731 mmHg 90%
    05:00 +22°C° 0.4 mm 0 m/s 731 mmHg 91%
    06:00 +24°C° 0 mm 0 m/s 732 mmHg 89%
    07:00 +25°C° 0 mm 0 m/s 732 mmHg 86%
    08:00 +26°C° 0 mm 0 m/s 732 mmHg 84%
    09:00 +28°C° 0.2 mm 0 m/s 732 mmHg 79%
    10:00 +32°C° 0.2 mm 1 m/s 732 mmHg 75%
    11:00 +33°C° 0.2 mm 1 m/s 731 mmHg 70%
    12:00 +33°C° 0.2 mm 1 m/s 731 mmHg 68%
    13:00 +34°C° 0.2 mm 1 m/s 730 mmHg 67%
    14:00 +34°C° 0.2 mm 1 m/s 729 mmHg 65%
    15:00 +33°C° 0.3 mm 1 m/s 729 mmHg 69%
    16:00 +32°C° 0.3 mm 1 m/s 729 mmHg 74%
    17:00 +31°C° 0.3 mm 1 m/s 729 mmHg 78%
    18:00 +30°C° 0.6 mm 1 m/s 730 mmHg 81%
    19:00 +28°C° 0.6 mm 1 m/s 730 mmHg 84%
    20:00 +27°C° 0.6 mm 1 m/s 731 mmHg 87%
    21:00 +26°C° 1.5 mm 1 m/s 731 mmHg 89%
    22:00 +26°C° 1.5 mm 1 m/s 731 mmHg 91%
    23:00 +24°C° 1.5 mm 0 m/s 732 mmHg 93%

    23 Septembre, Lundi

    Heure Température Précipitation Vent Pression Humidité
    00:00 +23°C° 1.4 mm 0 m/s 731 mmHg 93%
    01:00 +23°C° 1.4 mm 0 m/s 731 mmHg 94%
    02:00 +23°C° 1.4 mm 0 m/s 731 mmHg 95%
    03:00 +23°C° 0.3 mm 0 m/s 731 mmHg 94%
    04:00 +22°C° 0.3 mm 0 m/s 731 mmHg 94%
    05:00 +22°C° 0.3 mm 0 m/s 731 mmHg 94%
    06:00 +23°C° 0 mm 0 m/s 732 mmHg 92%
    07:00 +24°C° 0 mm 0 m/s 732 mmHg 90%
    08:00 +25°C° 0 mm 0 m/s 733 mmHg 89%
    09:00 +27°C° 0.1 mm 0 m/s 733 mmHg 82%
    10:00 +31°C° 0.1 mm 1 m/s 732 mmHg 75%
    11:00 +33°C° 0.1 mm 1 m/s 732 mmHg 69%
    12:00 +33°C° 0.1 mm 1 m/s 732 mmHg 68%
    13:00 +31°C° 0.1 mm 0 m/s 731 mmHg 67%
    14:00 +31°C° 0.1 mm 0 m/s 730 mmHg 66%
    15:00 +30°C° 0.4 mm 0 m/s 730 mmHg 70%
    16:00 +29°C° 0.4 mm 0 m/s 730 mmHg 75%
    17:00 +28°C° 0.4 mm 0 m/s 730 mmHg 79%
    18:00 +27°C° 0.3 mm 0 m/s 730 mmHg 81%
    19:00 +28°C° 0.3 mm 1 m/s 731 mmHg 83%
    20:00 +27°C° 0.3 mm 1 m/s 731 mmHg 85%
    21:00 +26°C° 0.3 mm 1 m/s 731 mmHg 87%
    22:00 +24°C° 0.3 mm 0 m/s 732 mmHg 88%
    23:00 +24°C° 0.3 mm 0 m/s 732 mmHg 89%

    24 Septembre, Mardi

    Heure Température Précipitation Vent Pression Humidité
    00:00 +24°C° 0.6 mm 0 m/s 731 mmHg 91%
    01:00 +23°C° 0.6 mm 0 m/s 731 mmHg 92%
    02:00 +23°C° 0.6 mm 0 m/s 731 mmHg 94%
    03:00 +23°C° 0.4 mm 0 m/s 731 mmHg 94%
    04:00 +23°C° 0.4 mm 0 m/s 731 mmHg 94%
    05:00 +23°C° 0.4 mm 0 m/s 731 mmHg 95%
    06:00 +24°C° 0.1 mm 0 m/s 732 mmHg 92%
    07:00 +25°C° 0.1 mm 0 m/s 732 mmHg 90%
    08:00 +26°C° 0.1 mm 0 m/s 732 mmHg 88%
    09:00 +27°C° 0.1 mm 0 m/s 732 mmHg 83%
    10:00 +29°C° 0.1 mm 0 m/s 732 mmHg 78%
    11:00 +32°C° 0.1 mm 1 m/s 731 mmHg 72%
    12:00 +31°C° 0.2 mm 0 m/s 731 mmHg 70%
    13:00 +31°C° 0.2 mm 0 m/s 730 mmHg 69%
    14:00 +32°C° 0.2 mm 0 m/s 729 mmHg 67%
    15:00 +31°C° 0.3 mm 0 m/s 729 mmHg 71%
    16:00 +30°C° 0.3 mm 0 m/s 729 mmHg 75%
    17:00 +29°C° 0.3 mm 0 m/s 729 mmHg 79%
    18:00 +29°C° 0.5 mm 1 m/s 730 mmHg 82%
    19:00 +28°C° 0.5 mm 1 m/s 730 mmHg 85%
    20:00 +27°C° 0.5 mm 1 m/s 731 mmHg 88%
    21:00 +26°C° 1.3 mm 1 m/s 731 mmHg 90%
    22:00 +26°C° 1.3 mm 1 m/s 731 mmHg 93%
    23:00 +26°C° 1.3 mm 1 m/s 731 mmHg 95%
    Voir plus